Location: Niverville
(49.6028°N, 97.0419°W)
Time: 08:28:30
(UTC-05:00)

ISS - All Passes

Search period start: 22 September 2017 00:00
Search period end: 02 October 2017 00:00
Orbit: 401 x 407 km, 51.6° (Epoch: 22 September)

Date Brightness Start Highest point End Pass type
(mag) Time Alt. Az. Time Alt. Az. Time Alt. Az.
22 Sep - 01:32:50 10° W 01:36:05 58° N 01:39:21 10° E night (unlit)
22 Sep - 03:09:24 10° WNW 03:12:43 86° SSW 03:16:01 10° ESE night (unlit)
22 Sep - 04:46:16 10° W 04:48:53 22° SW 04:51:29 10° SSE night (unlit)
22 Sep - 21:30:02 10° SSE 21:31:18 12° SE 21:32:35 10° ESE night (unlit)
22 Sep - 23:04:00 10° SW 23:07:12 54° SSE 23:10:27 10° ENE night (unlit)
23 Sep - 00:40:26 10° W 00:43:42 61° N 00:47:00 10° ENE night (unlit)
23 Sep - 02:17:05 10° WNW 02:20:23 73° NNE 02:23:41 10° E night (unlit)
23 Sep - 03:53:42 10° W 03:56:44 34° SSW 03:59:45 10° SE night (unlit)
23 Sep - 22:11:58 10° SW 22:14:59 35° SSE 22:18:02 10° E night (unlit)
23 Sep - 23:48:03 10° W 23:51:20 72° NNW 23:54:38 10° ENE night (unlit)
24 Sep - 01:24:44 10° WNW 01:28:01 62° N 01:31:18 10° E night (unlit)
24 Sep - 03:01:17 10° WNW 03:04:30 52° SSW 03:07:43 10° SE night (unlit)
24 Sep - 04:39:13 10° WSW 04:40:23 11° SW 04:41:33 10° SSW night (unlit)
24 Sep - 21:20:11 10° SSW 21:22:49 22° SE 21:25:27 10° E visible
24 Sep - 22:55:41 10° WSW 22:58:59 88° SSE 23:02:17 10° ENE night (unlit)
25 Sep - 00:32:21 10° W 00:35:36 58° N 00:38:52 10° E night (unlit)
25 Sep - 02:08:54 10° WNW 02:12:12 77° SSW 02:15:30 10° ESE night (unlit)
25 Sep - 03:45:54 10° W 03:48:18 19° SW 03:50:41 10° S night (unlit)
25 Sep - 20:28:53 10° S 20:30:41 14° SE 20:32:30 10° ESE visible
25 Sep - 22:03:24 10° WSW 22:06:39 62° SSE 22:09:55 10° ENE visible
25 Sep - 23:39:56 10° W 23:43:12 59° N 23:46:28 10° ENE night (unlit)
26 Sep - 01:16:33 10° WNW 01:19:51 79° NNE 01:23:09 10° ESE night (unlit)
26 Sep - 02:53:13 10° W 02:56:08 29° SW 02:59:03 10° SSE night (unlit)
26 Sep - 21:11:16 10° SW 21:14:22 40° SSE 21:17:29 10° E visible
26 Sep - 22:47:30 10° W 22:50:46 68° N 22:54:03 10° ENE visible
27 Sep - 00:24:10 10° WNW 00:27:27 65° N 00:30:44 10° E night (unlit)
27 Sep - 02:00:43 10° WNW 02:03:54 45° SSW 02:07:03 10° SE night (unlit)
27 Sep - 20:19:21 10° SSW 20:22:08 26° SE 20:24:56 10° E visible
27 Sep - 21:55:05 10° WSW 21:58:21 84° NNW 22:01:40 10° ENE visible
27 Sep - 23:31:45 10° WNW 23:35:01 58° N 23:38:17 10° E night (unlit)
28 Sep - 01:08:17 10° WNW 01:11:34 68° SSW 01:14:50 10° ESE night (unlit)
28 Sep - 02:45:30 10° W 02:47:36 16° SW 02:49:41 10° S night (unlit)
28 Sep - 19:27:47 10° S 19:29:57 17° SE 19:32:07 10° E daylight
28 Sep - 21:02:43 10° WSW 21:05:59 71° SSE 21:09:16 10° ENE visible
28 Sep - 22:39:18 10° W 22:42:33 58° N 22:45:49 10° ENE visible
29 Sep - 00:15:54 10° WNW 00:19:12 87° NNE 00:22:30 10° ESE night (unlit)
29 Sep - 01:52:38 10° W 01:55:25 25° SW 01:58:10 10° SSE night (unlit)
29 Sep - 20:10:29 10° SW 20:13:39 47° SSE 20:16:50 10° ENE visible
29 Sep - 21:46:50 10° W 21:50:05 64° N 21:53:23 10° ENE visible
29 Sep - 23:23:29 10° WNW 23:26:46 69° N 23:30:03 10° E night (unlit)
30 Sep - 01:00:03 10° W 01:03:10 39° SSW 01:06:15 10° SE night (unlit)
30 Sep - 19:18:26 10° SSW 19:21:21 30° SSE 19:24:17 10° E daylight
30 Sep - 20:54:21 10° WSW 20:57:38 78° NNW 21:00:57 10° ENE visible
30 Sep - 22:31:02 10° WNW 22:34:18 60° N 22:37:34 10° E visible
01 Oct - 00:07:34 10° WNW 00:10:50 60° SSW 00:14:04 10° SE night (unlit)
01 Oct - 01:45:04 10° WSW 01:46:46 13° SW 01:48:28 10° SSW night (unlit)
01 Oct - 18:26:41 10° S 18:29:07 19° SE 18:31:32 10° E daylight
01 Oct - 20:01:56 10° WSW 20:05:13 80° SSE 20:08:30 10° ENE visible
01 Oct - 21:38:33 10° W 21:41:48 57° N 21:45:04 10° E visible
01 Oct - 23:15:08 10° WNW 23:18:25 85° SSW 23:21:43 10° ESE visible
